Weather History for Olean, NY

Change the Weather History Date:

Friday, December 28, 2012

  Actual Average (KBFD) Record (KBFD)
Temperature  
Mean Temperature 22 °F 22 °F  
Max Temperature 23 °F 30 °F 61 °F (1982)
Min Temperature 21 °F 15 °F -15 °F (1960)
Degree Days  
Heating Degree Days 43 37  
Month to date heating degree days 952  
Since 1 July heating degree days 2787  
Cooling Degree Days 0 0  
Month to date cooling degree days 0  
Year to date cooling degree days 193  
Moisture  
Dew Point 22 °F    
Average Humidity 98    
Maximum Humidity 100    
Minimum Humidity 93    
Precipitation  
Precipitation 0.00 in 0.10 in 0.86 in (1959)
Month to date precipitation 3.10  
Year to date precipitation 44.16  
Sea Level Pressure  
Sea Level Pressure 29.98 in    
Wind  
Wind Speed 2 mph (WNW)    
Max Wind Speed 7 mph    
Max Gust Speed -    
Visibility 6 miles    
Events Snow    
T = Trace of Precipitation, MM = Missing Value Source: NWS Daily Summary

Daily Weather History Graph

Daily Weather History Graph

Search for Another Location

Airport:

Trip Planner

Search our weather history database for the weather conditions in past years. The results will help you decide how hot, cold, wet, or windy it might be!

Date:

Astronomy

Dec. 28, 2012 Rise Set
Actual Time 7:41 AM EST 4:49 PM EST
Civil Twilight 7:09 AM EST 5:20 PM EST
Nautical Twilight 6:34 AM EST 5:56 PM EST
Astronomical Twilight 6:00 AM EST 6:30 PM EST
Moon 5:25 PM EST (12/28) 7:33 AM EST (12/28)
Length of Visible Light 10h 10m
Length of Day
9h 07m
Full, 100% of the Moon is Illuminated
Dec 28
Full
Jan 4
Last Quarter
Jan 11
New
Jan 18
First Quarter
Jan 26
Full

Hourly Weather History & Observations

Time (EST) Temp. Windchill Dew Point Humidity Pressure Visibility Wind Dir Wind Speed Gust Speed Precip Events Conditions
12:15 AM 23.0 °F 17.0 °F 21.2 °F 93% 29.93 in 3.0 mi WNW 4.6 mph - N/A   Overcast
12:35 AM 23.0 °F 14.7 °F 21.2 °F 93% 29.93 in 2.0 mi WNW 6.9 mph - N/A   Overcast
12:55 AM 23.0 °F 14.7 °F 21.2 °F 93% 29.92 in 1.0 mi WNW 6.9 mph - N/A   Overcast
1:15 AM 23.0 °F 18.4 °F 21.2 °F 93% 29.93 in 1.2 mi WNW 3.5 mph - N/A   Overcast
1:35 AM 23.0 °F 17.0 °F 21.2 °F 93% 29.94 in 1.2 mi WNW 4.6 mph - N/A   Overcast
1:55 AM 21.2 °F 14.9 °F 21.2 °F 100% 29.94 in 1.2 mi WNW 4.6 mph - N/A   Overcast
2:15 AM 21.2 °F 13.6 °F 21.2 °F 100% 29.95 in 1.0 mi WNW 5.8 mph - N/A   Overcast
2:35 AM 21.2 °F 13.6 °F 21.2 °F 100% 29.96 in 1.2 mi WNW 5.8 mph - N/A   Overcast
2:55 AM 21.2 °F 16.4 °F 21.2 °F 100% 29.96 in 1.0 mi WNW 3.5 mph - N/A   Overcast
3:15 AM 21.2 °F 16.4 °F 21.2 °F 100% 29.96 in 1.0 mi WNW 3.5 mph - N/A   Overcast
3:35 AM 21.2 °F - 21.2 °F 100% 29.96 in 1.0 mi Calm Calm - N/A   Overcast
3:55 AM 21.2 °F - 21.2 °F 100% 29.97 in 1.5 mi Calm Calm - N/A   Overcast
4:15 AM 21.2 °F - 21.2 °F 100% 29.97 in 1.8 mi Calm Calm - N/A   Overcast
4:35 AM 21.2 °F - 21.2 °F 100% 29.98 in 1.8 mi Calm Calm - N/A   Overcast
4:55 AM 21.2 °F - 21.2 °F 100% 29.99 in 3.0 mi Calm Calm - N/A   Overcast
5:15 AM 21.2 °F - 21.2 °F 100% 29.99 in 7.0 mi Calm Calm - N/A   Overcast
5:35 AM 21.2 °F - 21.2 °F 100% 30.00 in 0.8 mi Calm Calm - N/A   Overcast
5:55 AM 21.2 °F - 21.2 °F 100% 30.00 in 1.0 mi Calm Calm - N/A   Overcast
6:15 AM 21.2 °F - 21.2 °F 100% 30.00 in 1.2 mi Calm Calm - N/A   Overcast
6:35 AM 21.2 °F - 21.2 °F 100% 30.00 in 1.8 mi Calm Calm - N/A   Overcast
6:55 AM 21.2 °F - 21.2 °F 100% 30.01 in 1.2 mi Calm Calm - N/A   Overcast
7:15 AM 21.2 °F - 21.2 °F 100% 30.01 in 1.5 mi Calm Calm - N/A   Overcast
7:35 AM 21.2 °F - 21.2 °F 100% 30.01 in 1.5 mi Calm Calm - N/A   Overcast
7:55 AM 21.2 °F - 21.2 °F 100% 30.01 in 0.8 mi Calm Calm - N/A   Overcast
8:15 AM 21.2 °F - 21.2 °F 100% 30.01 in 3.0 mi Calm Calm - N/A   Overcast
8:35 AM 21.2 °F - 21.2 °F 100% 30.01 in 5.0 mi Calm Calm - N/A   Overcast
9:15 AM 21.2 °F - 21.2 °F 100% 30.02 in 10.0 mi Calm Calm - N/A   Overcast
9:35 AM 21.2 °F - 21.2 °F 100% 30.02 in 10.0 mi Calm Calm - N/A   Overcast
9:55 AM 23.0 °F - 21.2 °F 93% 30.03 in 10.0 mi Calm Calm - N/A   Overcast
10:15 AM 21.2 °F - 21.2 °F 100% 30.03 in 10.0 mi Calm Calm - N/A   Overcast
10:55 AM 23.0 °F - 21.2 °F 93% 30.03 in 7.0 mi Calm Calm - N/A   Overcast
11:15 AM 23.0 °F - 21.2 °F 93% 30.02 in 7.0 mi Calm Calm - N/A   Overcast
11:35 AM 23.0 °F - 21.2 °F 93% 30.01 in 7.0 mi Calm Calm - N/A   Overcast
11:55 AM 23.0 °F - 21.2 °F 93% 30.01 in 7.0 mi Calm Calm - N/A   Overcast
12:15 PM 23.0 °F - 21.2 °F 93% 30.00 in 7.0 mi Calm Calm - N/A   Overcast
12:35 PM 23.0 °F - 21.2 °F 93% 29.99 in 7.0 mi Calm Calm - N/A   Overcast
12:55 PM 23.0 °F - 23.0 °F 100% 29.99 in 7.0 mi Calm Calm - N/A   Overcast
1:15 PM 23.0 °F - 23.0 °F 100% 30.00 in 7.0 mi Calm Calm - N/A   Overcast
1:55 PM 23.0 °F - 23.0 °F 100% 30.03 in 7.0 mi Calm Calm - N/A   Overcast
2:15 PM 23.0 °F - 23.0 °F 100% 30.02 in 7.0 mi Calm Calm - N/A   Overcast
2:35 PM 23.0 °F - 23.0 °F 100% 30.02 in 10.0 mi Calm Calm - N/A   Overcast
2:55 PM 23.0 °F - 23.0 °F 100% 30.03 in 10.0 mi Calm Calm - N/A   Overcast
3:15 PM 23.0 °F - 23.0 °F 100% 30.02 in 10.0 mi Calm Calm - N/A   Overcast
3:35 PM 23.0 °F - 23.0 °F 100% 30.02 in 10.0 mi Calm Calm - N/A   Overcast
3:55 PM 23.0 °F - 23.0 °F 100% 30.01 in 10.0 mi Calm Calm - N/A   Overcast
4:15 PM 23.0 °F - 23.0 °F 100% 30.00 in 10.0 mi Calm Calm - N/A   Overcast
4:35 PM 23.0 °F - 23.0 °F 100% 29.95 in 5.0 mi Calm Calm - N/A Snow Light Snow
4:55 PM 23.0 °F - 23.0 °F 100% 29.99 in 7.0 mi Calm Calm - N/A   Overcast
5:15 PM 23.0 °F - 23.0 °F 100% 29.97 in 10.0 mi Calm Calm - N/A   Overcast
5:35 PM 23.0 °F - 23.0 °F 100% 29.97 in 10.0 mi Calm Calm - N/A   Overcast
5:55 PM 23.0 °F - 23.0 °F 100% 29.97 in 10.0 mi Calm Calm - N/A   Overcast
6:15 PM 23.0 °F - 23.0 °F 100% 29.97 in 10.0 mi Calm Calm - N/A   Overcast
6:35 PM 23.0 °F - 23.0 °F 100% 29.97 in 10.0 mi Calm Calm - N/A   Overcast
6:55 PM 23.0 °F - 23.0 °F 100% 29.97 in 10.0 mi Calm Calm - N/A   Overcast
7:15 PM 23.0 °F - 23.0 °F 100% 29.97 in 10.0 mi Calm Calm - N/A   Overcast
7:35 PM 23.0 °F - 23.0 °F 100% 29.96 in 10.0 mi Calm Calm - N/A   Overcast
7:55 PM 23.0 °F - 23.0 °F 100% 29.97 in 10.0 mi Calm Calm - N/A   Overcast
8:15 PM 23.0 °F - 21.2 °F 93% 29.96 in 10.0 mi Calm Calm - N/A   Overcast
8:35 PM 23.0 °F - 21.2 °F 93% 29.96 in 10.0 mi Calm Calm - N/A   Overcast
8:55 PM 23.0 °F - 21.2 °F 93% 29.94 in 10.0 mi Calm Calm - N/A   Overcast
9:15 PM 23.0 °F - 21.2 °F 93% 29.94 in 10.0 mi Calm Calm - N/A   Overcast
9:35 PM 23.0 °F - 21.2 °F 93% 29.94 in 10.0 mi Calm Calm - N/A   Overcast
9:55 PM 23.0 °F - 21.2 °F 93% 29.94 in 10.0 mi Calm Calm - N/A   Overcast
10:15 PM 21.2 °F - 21.2 °F 100% 29.92 in 10.0 mi Calm Calm - N/A   Overcast
10:35 PM 21.2 °F - 21.2 °F 100% 29.93 in 10.0 mi Calm Calm - N/A   Overcast
10:55 PM 21.2 °F - 21.2 °F 100% 29.93 in 10.0 mi Calm Calm - N/A   Overcast
11:15 PM 21.2 °F - 21.2 °F 100% 29.92 in 10.0 mi Calm Calm - N/A   Overcast
11:35 PM 21.2 °F - 21.2 °F 100% 29.91 in 5.0 mi Calm Calm - N/A   Overcast
11:55 PM 21.2 °F - 21.2 °F 100% 29.91 in 5.0 mi Calm Calm - N/A   Overcast